Flag for Austria Weather past 2 weeks in Judenburg, Styria, Austria

Now
23 °F

Broken clouds.


Feels Like: 23 °F
Forecast: 34 / 49 °F
Wind: 2 mph from North

Location: Zeltweg

Current Time: Dec 22, 2014 at 10:00:44 AM

Latest Report: Dec 22, 2014 at 8:50 AM


Visibility: 19 mi

Pressure: 30.24 "Hg

Humidity: 93%

Dew point: 21 °F

Location of JudenburgLocation

Historic Weather in Judenburg — Graph

°F

Judenburg temperature yesterday

Maximum temperature yesterday: 43 °F (at 11:50 AM)
Minimum temperature yesterday: 27 °F (at 7:50 PM)
Average temperature yesterday: 36 °F

Past Weeks' High & Low Weather Summary

 TemperatureHumidityPressure
High55 °F (Dec 19, 2:50 PM)100% (Dec 7, 5:50 PM)30.39 "Hg (Dec 7, 5:50 PM)
Low16 °F (Dec 10, 7:20 AM)38% (Dec 20, 12:50 PM)29.86 "Hg (Dec 16, 2:50 PM)
Average33 °F86%30.07 "Hg
* Reported Dec 7 8:50 AM — Dec 22 8:50 AM, Judenburg, Weather by CustomWeather, © 2014

Note: Actual official high and low records may vary slightly from our data, if they occured in-between our weather recording intervals... More about our weather records

Advertising

Judenburg weather history for previous 24 hours

 ConditionsComfort  
Time TempWeatherWind HumidityBarometerVisibility
8:50 AM
Dec 22
23 °FBroken clouds.2 mph93%30.24 "Hg19 mi
7:50 AM21 °FPartly sunny.2 mph93%30.24 "Hg19 mi
6:50 AM21 °FPassing clouds.1 mph93%30.24 "Hg12 mi
5:50 AM23 °FPassing clouds.3 mph93%30.24 "Hg12 mi
4:50 AM23 °FPassing clouds.2 mph100%30.24 "Hg12 mi
9:50 PM
Dec 21
27 °FPassing clouds.2 mph80%30.39 "Hg19 mi
8:50 PM28 °FPassing clouds.2 mph80%30.39 "Hg19 mi
7:50 PM27 °FPassing clouds.2 mph86%30.12 "Hg19 mi
6:50 PM30 °FPassing clouds.2 mph75%30.39 "Hg25 mi
5:50 PM32 °FPassing clouds.3 mph69%30.39 "Hg25 mi
4:50 PM37 °FPassing clouds.6 mph56%30.39 "Hg25 mi
3:50 PM37 °FScattered clouds.13 mph52%30.36 "Hg25 mi
1:50 PM43 °FScattered clouds.20 mph46%30.36 "Hg19 mi
12:50 PM43 °FPartly sunny.17 mph49%30.33 "Hg12 mi
11:50 AM43 °FPartly sunny.16 mph53%30.33 "Hg12 mi
10:50 AM41 °FPartly sunny.16 mph57%30.33 "Hg12 mi
Weather by CustomWeather, © 2014

See weather overviewHow to use our weather pages